Tracking 31027 objects as of 19-Jul-2025
HD Live streaming from Space Station
objects crossing your sky now

SL-14 DEB

Track SL-14 DEB now!
10-day predictions


NORAD ID: 45316
Int'l Code: 1991-056BE
Perigee: 1,064.6 km
Apogee: 1,226.5 km
Inclination: 82.6 °
Period: 108.1 minutes
Semi major axis: 7516 km
RCS: Unknown
Launch date: August 15, 1991
Source: Commonwealth of Independent States (former USSR) (CIS)
Launch site: PLESETSK MISSILE AND SPACE COMPLEX (PKMTR)

Note: This is SATELLITE DEBRIS
Your satellite tracking list
Your tracking list is empty




NASA's NSSDC Master Catalog

Two Line Element Set (TLE):
1 45316U 91056BE  25199.67697462  .00000907  00000-0  17899-2 0  9995
2 45316  82.5984 353.0704 0107673 116.2253 244.9994 13.32218020262624
Source of the keplerian elements: AFSPC